QPF
0.01 0.01 0.03 0.02 0.02 0.02 0.01 0.01 0.01 0.01 0.01 0.01 0.01 0.01 0.01 0.01 0.01 0.01 0.01 0.01 0.01 0.01 0.03 0.03 0.03 0.03 0.02 0.02 0.02 0.01 0.01 0.01 0.01 0.02 0.01 0.01 0.02 0.02 0.02 0.02 0.01 0.01 0.01
0.00 0.01 0.02 0.02 0.02 0.02 0.02 0.01 0.01 0.01 0.01 0.01 0.01 0.01 0.01 0.01 0.01 0.01 0.01 0.01 0.01 0.01 0.02 0.02 0.02 0.01 0.01 0.01 0.01 0.01 0.01 0.01 0.00 0.00 0.00 0.00 0.01 0.02 0.02 0.02 0.02 0.02 0.02
0.00 0.01 0.01 0.02 0.02 0.02 0.01 0.01 0.01 0.01 0.01 0.01 0.01 0.01 0.01 0.01 0.01 0.01 0.01 0.01 0.01 0.01 0.02 0.02 0.01 0.01 0.01 0.01 0.01 0.00 0.01 0.01 0.01 0.00 0.00 0.00 0.00 0.01 0.01 0.02 0.02 0.02 0.02
0.00 0.01 0.01 0.02 0.02 0.02 0.02 0.02 0.01 0.01 0.01 0.01 0.01 0.01 0.01 0.01 0.01 0.01 0.01 0.01 0.01 0.01 0.01 0.02 0.01 0.02 0.01 0.01 0.01 0.01 0.01 0.01 0.01 0.00 0.00 0.00 0.00 0.01 0.02 0.02 0.02 0.02 0.02
0.00 0.01 0.01 0.02 0.02 0.02 0.02 0.02 0.01 0.01 0.01 0.01 0.02 0.01 0.01 0.01 0.01 0.01 0.00 0.01 0.01 0.01 0.01 0.01 0.01 0.02 0.02 0.02 0.01 0.01 0.00 0.00 0.00 0.00 0.00 0.00 0.00 0.02 0.03 0.03 0.02 0.02 0.02
0.00 0.01 0.01 0.01 0.01 0.02 0.02 0.01 0.01 0.01 0.01 0.01 0.01 0.01 0.01 0.02 0.02 0.01 0.01 0.00 0.01 0.01 0.01 0.01 0.01 0.02 0.01 0.01 0.01 0.01 0.01 0.00 0.00 0.00 0.00 0.00 0.00 0.02 0.03 0.03 0.02 0.03 0.03
0.00 0.00 0.01 0.01 0.01 0.01 0.01 0.01 0.01 0.01 0.01 0.00 0.00 0.01 0.01 0.01 0.02 0.02 0.01 0.00 0.00 0.00 0.00 0.01 0.01 0.01 0.01 0.01 0.01 0.01 0.00 0.00 0.00 0.00 0.00 0.00 0.00 0.01 0.02 0.02 0.02 0.02 0.03
0.00 0.01 0.01 0.01 0.01 0.01 0.01 0.01 0.01 0.01 0.01 0.01 0.00 0.00 0.00 0.01 0.00 0.01 0.01 0.01 0.01 0.01 0.01 0.01 0.01 0.01 0.01 0.01 0.01 0.00 0.00 0.00 0.00 0.00 0.00 0.00 0.00 0.01 0.01 0.02 0.02 0.02 0.02
0.00 0.01 0.01 0.01 0.01 0.01 0.02 0.02 0.01 0.01 0.00 0.00 0.01 0.01 0.01 0.00 0.00 0.01 0.01 0.01 0.01 0.01 0.01 0.01 0.01 0.01 0.01 0.01 0.01 0.00 0.00 0.00 0.00 0.00 0.00 0.00 0.01 0.02 0.02 0.02 0.02 0.02 0.01
0.02 0.01 0.01 0.01 0.01 0.01 0.01 0.01 0.01 0.01 0.01 0.00 0.00 0.00 0.01 0.00 0.00 0.00 0.00 0.00 0.01 0.01 0.01 0.01 0.01 0.01 0.01 0.01 0.01 0.01 0.00 0.00 0.00 0.00 0.00 0.00 0.00 0.02 0.03 0.02 0.01 0.01 0.01
0.02 0.01 0.01 0.01 0.01 0.00 0.00 0.00 0.00 0.00 0.01 0.01 0.00 0.01 0.01 0.00 0.00 0.00 0.00 0.00 0.00 0.01 0.01 0.02 0.02 0.02 0.02 0.01 0.01 0.01 0.00 0.00 0.00 0.00 0.00 0.00 0.00 0.01 0.02 0.01 0.01 0.01 0.01
0.01 0.01 0.00 0.00 0.00 0.00 0.00 0.00 0.00 0.00 0.00 0.01 0.01 0.01 0.01 0.00 0.00 0.00 0.00 0.00 0.00 0.01 0.01 0.02 0.02 0.03 0.02 0.01 0.01 0.01 0.00 0.00 0.00 0.00 0.00 0.00 0.00 0.01 0.01 0.01 0.01 0.01 0.01
0.00 0.01 0.01 0.00 0.00 0.00 0.00 0.00 0.01 0.01 0.01 0.01 0.00 0.00 0.00 0.00 0.00 0.01 0.00 0.00 0.00 0.00 0.01 0.01 0.01 0.02 0.01 0.00 0.01 0.01 0.00 0.00 0.00 0.00 0.00 0.00 0.00 0.01 0.01 0.01 0.00 0.01 0.01
0.00 0.00 0.00 0.01 0.01 0.01 0.01 0.01 0.01 0.01 0.01 0.01 0.01 0.00 0.00 0.00 0.00 0.00 0.00 0.00 0.00 0.00 0.00 0.01 0.01 0.01 0.01 0.01 0.01 0.01 0.00 0.00 0.00 0.00 0.00 0.00 0.00 0.01 0.01 0.01 0.01 0.01 0.01
0.01 0.01 0.01 0.01 0.00 0.01 0.01 0.01 0.01 0.01 0.01 0.01 0.01 0.01 0.01 0.01 0.01 0.00 0.00 0.00 0.00 0.00 0.00 0.00 0.01 0.01 0.01 0.01 0.01 0.01 0.00 0.00 0.00 0.00 0.00 0.00 0.00 0.00 0.01 0.01 0.01 0.01 0.01
0.01 0.01 0.01 0.01 0.01 0.01 0.01 0.01 0.01 0.00 0.00 0.00 0.00 0.01 0.01 0.01 0.01 0.00 0.00 0.00 0.00 0.00 0.00 0.00 0.01 0.01 0.01 0.01 0.01 0.00 0.00 0.00 0.00 0.00 0.00 0.00 0.00 0.00 0.00 0.01 0.02 0.02 0.02
0.00 0.00 0.01 0.01 0.02 0.01 0.01 0.00 0.00 0.00 0.00 0.00 0.00 0.00 0.00 0.00 0.00 0.00 0.00 0.00 0.00 0.00 0.00 0.00 0.00 0.00 0.00 0.01 0.01 0.01 0.01 0.01 0.01 0.00 0.00 0.00 0.00 0.00 0.00 0.00 0.01 0.02 0.02
0.01 0.01 0.01 0.01 0.01 0.01 0.00 0.00 0.00 0.00 0.00 0.00 0.00 0.00 0.00 0.00 0.00 0.00 0.00 0.00 0.00 0.00 0.00 0.00 0.00 0.00 0.00 0.01 0.02 0.04 0.03 0.02 0.01 0.01 0.01 0.00 0.00 0.00 0.00 0.01 0.01 0.01 0.02
0.01 0.01 0.01 0.01 0.01 0.00 0.00 0.00 0.00 0.00 0.00 0.00 0.00 0.00 0.00 0.00 0.00 0.00 0.00 0.00 0.00 0.00 0.00 0.00 0.00 0.00 0.00 0.00 0.00 0.01 0.03 0.03 0.03 0.02 0.02 0.01 0.01 0.01 0.01 0.01 0.02 0.02 0.02
0.01 0.01 0.01 0.01 0.01 0.00 0.00 0.00 0.00 0.00 0.00 0.00 0.00 0.00 0.00 0.00 0.00 0.00 0.00 0.00 0.00 0.00 0.00 0.00 0.00 0.00 0.00 0.00 0.01 0.01 0.01 0.02 0.02 0.02 0.01 0.01 0.01 0.01 0.01 0.02 0.03 0.04 0.03
0.00 0.00 0.01 0.01 0.00 0.00 0.00 0.00 0.00 0.00 0.00 0.00 0.00 0.00 0.00 0.00 0.00 0.00 0.00 0.00 0.00 0.00 0.00 0.00 0.01 0.01 0.00 0.01 0.01 0.01 0.02 0.02 0.01 0.01 0.01 0.01 0.00 0.01 0.01 0.01 0.02 0.02 0.02
0.00 0.00 0.00 0.00 0.00 0.00 0.00 0.00 0.00 0.00 0.00 0.00 0.00 0.00 0.00 0.00 0.00 0.00 0.00 0.00 0.00 0.00 0.00 0.00 0.01 0.01 0.01 0.01 0.01 0.02 0.02 0.02 0.02 0.02 0.01 0.01 0.01 0.00 0.00 0.00 0.00 0.01 0.01
0.00 0.00 0.00 0.00 0.00 0.00 0.00 0.00 0.00 0.00 0.00 0.00 0.00 0.00 0.00 0.00 0.00 0.00 0.00 0.00 0.00 0.00 0.00 0.00 0.00 0.01 0.00 0.00 0.01 0.01 0.01 0.01 0.02 0.02 0.02 0.01 0.01 0.01 0.00 0.00 0.00 0.00 0.00
0.00 0.00 0.00 0.00 0.00 0.00 0.00 0.00 0.00 0.00 0.00 0.00 0.00 0.00 0.00 0.00 0.00 0.00 0.00 0.00 0.00 0.00 0.00 0.00 0.00 0.00 0.00 0.00 0.00 0.00 0.01 0.01 0.01 0.01 0.01 0.01 0.01 0.01 0.01 0.00 0.00 0.00 0.00
0.00 0.00 0.00 0.00 0.00 0.00 0.00 0.00 0.00 0.00 0.00 0.00 0.00 0.00 0.00 0.00 0.00 0.00 0.00 0.00 0.00 0.00 0.00 0.00 0.00 0.00 0.00 0.00 0.00 0.00 0.00 0.00 0.00 0.01 0.01 0.01 0.01 0.01 0.01 0.01 0.01 0.00 0.00
0.00 0.00 0.00 0.00 0.00 0.00 0.00 0.00 0.00 0.00 0.00 0.00 0.00 0.00 0.00 0.00 0.00 0.00 0.00 0.00 0.00 0.00 0.00 0.00 0.00 0.00 0.00 0.00 0.00 0.00 0.00 0.00 0.01 0.01 0.01 0.01 0.01 0.01 0.01 0.01 0.01 0.01 0.00
MSLP
1013.28 1012.99 1012.91 1013.04 1013.35 1013.77 1014.23 1014.64 1014.95 1015.15 1015.26 1015.31 1015.36 1015.45 1015.60 1015.80 1016.02 1016.23 1016.38 1016.45 1016.44 1016.37 1016.26 1016.17 1016.11 1016.11 1016.15 1016.22 1016.28 1016.31 1016.29 1016.21 1016.09 1015.94 1015.80 1015.69 1015.61 1015.57 1015.56 1015.55 1015.55 1015.55 1015.53
1013.01 1012.83 1012.85 1013.08 1013.46 1013.94 1014.43 1014.87 1015.21 1015.43 1015.56 1015.64 1015.72 1015.84 1016.01 1016.23 1016.47 1016.69 1016.84 1016.91 1016.90 1016.82 1016.72 1016.62 1016.55 1016.54 1016.56 1016.61 1016.65 1016.67 1016.64 1016.57 1016.47 1016.36 1016.25 1016.16 1016.10 1016.05 1016.01 1015.97 1015.92 1015.86 1015.80
1012.70 1012.65 1012.78 1013.11 1013.57 1014.11 1014.64 1015.11 1015.46 1015.71 1015.85 1015.95 1016.05 1016.19 1016.37 1016.60 1016.83 1017.04 1017.19 1017.25 1017.24 1017.17 1017.08 1017.00 1016.96 1016.95 1016.98 1017.02 1017.06 1017.07 1017.04 1016.99 1016.91 1016.84 1016.76 1016.71 1016.67 1016.63 1016.58 1016.52 1016.43 1016.34 1016.24
1012.43 1012.50 1012.75 1013.17 1013.71 1014.30 1014.86 1015.35 1015.72 1015.97 1016.13 1016.24 1016.35 1016.49 1016.67 1016.88 1017.10 1017.28 1017.41 1017.48 1017.47 1017.43 1017.38 1017.34 1017.33 1017.36 1017.42 1017.48 1017.52 1017.54 1017.52 1017.48 1017.43 1017.38 1017.35 1017.33 1017.31 1017.29 1017.24 1017.17 1017.07 1016.95 1016.83
1012.29 1012.48 1012.82 1013.32 1013.91 1014.53 1015.11 1015.59 1015.96 1016.22 1016.38 1016.50 1016.61 1016.75 1016.92 1017.12 1017.31 1017.47 1017.58 1017.63 1017.65 1017.64 1017.64 1017.67 1017.73 1017.82 1017.92 1018.01 1018.08 1018.11 1018.10 1018.08 1018.04 1018.01 1017.99 1017.99 1017.99 1017.99 1017.95 1017.88 1017.78 1017.66 1017.53
1012.34 1012.61 1013.03 1013.57 1014.19 1014.81 1015.37 1015.84 1016.19 1016.44 1016.60 1016.73 1016.86 1017.01 1017.18 1017.36 1017.52 1017.66 1017.75 1017.80 1017.84 1017.87 1017.93 1018.04 1018.17 1018.34 1018.50 1018.64 1018.74 1018.78 1018.78 1018.75 1018.71 1018.68 1018.66 1018.67 1018.67 1018.67 1018.64 1018.58 1018.49 1018.38 1018.26
1012.59 1012.92 1013.37 1013.94 1014.54 1015.13 1015.66 1016.09 1016.41 1016.64 1016.82 1016.97 1017.12 1017.30 1017.48 1017.66 1017.82 1017.94 1018.02 1018.07 1018.12 1018.19 1018.31 1018.48 1018.69 1018.93 1019.16 1019.35 1019.47 1019.53 1019.52 1019.48 1019.42 1019.36 1019.33 1019.31 1019.30 1019.29 1019.26 1019.21 1019.13 1019.04 1018.93
1012.98 1013.34 1013.82 1014.37 1014.95 1015.48 1015.95 1016.33 1016.62 1016.84 1017.03 1017.22 1017.43 1017.65 1017.87 1018.08 1018.24 1018.36 1018.43 1018.48 1018.53 1018.63 1018.79 1019.01 1019.28 1019.58 1019.86 1020.09 1020.23 1020.29 1020.28 1020.21 1020.12 1020.03 1019.95 1019.90 1019.86 1019.82 1019.78 1019.72 1019.64 1019.56 1019.47
1013.43 1013.82 1014.30 1014.83 1015.36 1015.84 1016.24 1016.57 1016.82 1017.05 1017.27 1017.51 1017.78 1018.08 1018.36 1018.61 1018.80 1018.92 1018.99 1019.03 1019.09 1019.19 1019.36 1019.61 1019.92 1020.25 1020.56 1020.80 1020.96 1021.02 1020.99 1020.90 1020.77 1020.64 1020.52 1020.41 1020.33 1020.26 1020.18 1020.11 1020.02 1019.94 1019.86
1013.82 1014.25 1014.75 1015.26 1015.75 1016.18 1016.52 1016.80 1017.04 1017.27 1017.53 1017.84 1018.18 1018.55 1018.91 1019.21 1019.44 1019.58 1019.65 1019.68 1019.73 1019.83 1020.00 1020.25 1020.56 1020.90 1021.21 1021.46 1021.61 1021.66 1021.62 1021.50 1021.35 1021.18 1021.02 1020.88 1020.75 1020.64 1020.52 1020.41 1020.30 1020.20 1020.11
1014.09 1014.57 1015.09 1015.61 1016.08 1016.47 1016.79 1017.04 1017.27 1017.52 1017.82 1018.19 1018.61 1019.05 1019.47 1019.82 1020.09 1020.25 1020.33 1020.36 1020.40 1020.48 1020.64 1020.88 1021.17 1021.49 1021.79 1022.02 1022.16 1022.20 1022.15 1022.03 1021.87 1021.68 1021.50 1021.33 1021.17 1021.01 1020.85 1020.70 1020.54 1020.40 1020.28
1014.19 1014.73 1015.30 1015.84 1016.32 1016.72 1017.03 1017.28 1017.52 1017.79 1018.13 1018.54 1019.02 1019.51 1019.98 1020.37 1020.67 1020.85 1020.95 1020.99 1021.03 1021.11 1021.25 1021.47 1021.74 1022.03 1022.30 1022.51 1022.63 1022.67 1022.61 1022.50 1022.34 1022.17 1021.99 1021.81 1021.62 1021.43 1021.24 1021.03 1020.82 1020.63 1020.45
1014.11 1014.73 1015.36 1015.96 1016.47 1016.90 1017.23 1017.51 1017.78 1018.08 1018.45 1018.89 1019.39 1019.90 1020.39 1020.80 1021.12 1021.32 1021.44 1021.51 1021.56 1021.65 1021.80 1022.00 1022.25 1022.51 1022.75 1022.94 1023.05 1023.08 1023.04 1022.95 1022.82 1022.67 1022.52 1022.35 1022.16 1021.95 1021.71 1021.46 1021.19 1020.93 1020.69
1013.91 1014.59 1015.29 1015.95 1016.53 1017.00 1017.39 1017.72 1018.03 1018.37 1018.75 1019.20 1019.69 1020.20 1020.67 1021.08 1021.41 1021.64 1021.79 1021.89 1021.99 1022.12 1022.28 1022.49 1022.73 1022.98 1023.19 1023.35 1023.45 1023.49 1023.47 1023.41 1023.32 1023.21 1023.09 1022.95 1022.77 1022.55 1022.29 1022.00 1021.68 1021.35 1021.04
1013.64 1014.37 1015.12 1015.84 1016.48 1017.03 1017.50 1017.89 1018.26 1018.63 1019.03 1019.47 1019.94 1020.40 1020.84 1021.23 1021.55 1021.79 1021.99 1022.15 1022.31 1022.49 1022.71 1022.94 1023.19 1023.43 1023.63 1023.78 1023.87 1023.91 1023.91 1023.88 1023.84 1023.78 1023.70 1023.59 1023.43 1023.21 1022.94 1022.61 1022.24 1021.86 1021.48
1013.35 1014.10 1014.88 1015.64 1016.35 1016.97 1017.52 1018.00 1018.44 1018.85 1019.27 1019.69 1020.12 1020.53 1020.92 1021.27 1021.57 1021.84 1022.07 1022.31 1022.55 1022.80 1023.08 1023.36 1023.63 1023.87 1024.07 1024.21 1024.30 1024.34 1024.36 1024.37 1024.36 1024.34 1024.30 1024.21 1024.07 1023.86 1023.58 1023.24 1022.84 1022.42 1021.99
1013.09 1013.82 1014.59 1015.37 1016.12 1016.81 1017.45 1018.02 1018.53 1019.00 1019.44 1019.86 1020.24 1020.60 1020.94 1021.25 1021.54 1021.82 1022.10 1022.40 1022.72 1023.06 1023.40 1023.73 1024.03 1024.29 1024.48 1024.62 1024.71 1024.76 1024.80 1024.82 1024.84 1024.85 1024.82 1024.76 1024.63 1024.42 1024.14 1023.79 1023.39 1022.95 1022.49
1012.84 1013.52 1014.26 1015.03 1015.80 1016.55 1017.26 1017.92 1018.52 1019.06 1019.54 1019.95 1020.32 1020.64 1020.93 1021.20 1021.48 1021.78 1022.11 1022.47 1022.86 1023.26 1023.66 1024.04 1024.37 1024.64 1024.84 1024.98 1025.07 1025.13 1025.18 1025.22 1025.24 1025.26 1025.24 1025.18 1025.05 1024.85 1024.57 1024.23 1023.83 1023.39 1022.93
1012.58 1013.19 1013.88 1014.61 1015.39 1016.18 1016.96 1017.71 1018.40 1019.01 1019.53 1019.97 1020.33 1020.63 1020.89 1021.15 1021.43 1021.74 1022.10 1022.51 1022.96 1023.41 1023.85 1024.26 1024.61 1024.89 1025.09 1025.24 1025.35 1025.42 1025.48 1025.52 1025.56 1025.56 1025.54 1025.46 1025.32 1025.11 1024.84 1024.51 1024.13 1023.72 1023.28
1012.25 1012.80 1013.42 1014.13 1014.89 1015.71 1016.55 1017.37 1018.14 1018.82 1019.40 1019.88 1020.26 1020.56 1020.83 1021.09 1021.37 1021.70 1022.10 1022.54 1023.01 1023.50 1023.96 1024.38 1024.73 1025.02 1025.23 1025.40 1025.52 1025.61 1025.68 1025.74 1025.78 1025.78 1025.73 1025.63 1025.47 1025.25 1024.98 1024.67 1024.32 1023.95 1023.54
1011.80 1012.30 1012.88 1013.55 1014.32 1015.15 1016.03 1016.91 1017.75 1018.50 1019.14 1019.66 1020.07 1020.40 1020.69 1020.97 1021.28 1021.64 1022.06 1022.53 1023.02 1023.51 1023.97 1024.39 1024.74 1025.03 1025.26 1025.44 1025.59 1025.72 1025.82 1025.90 1025.94 1025.93 1025.87 1025.74 1025.56 1025.32 1025.05 1024.75 1024.44 1024.10 1023.73
1011.16 1011.66 1012.22 1012.88 1013.65 1014.50 1015.42 1016.34 1017.23 1018.04 1018.73 1019.29 1019.75 1020.13 1020.46 1020.78 1021.14 1021.53 1021.98 1022.47 1022.97 1023.46 1023.91 1024.31 1024.65 1024.94 1025.19 1025.40 1025.60 1025.77 1025.92 1026.04 1026.10 1026.09 1026.01 1025.86 1025.65 1025.40 1025.12 1024.83 1024.53 1024.23 1023.89
1010.31 1010.84 1011.43 1012.11 1012.89 1013.77 1014.71 1015.67 1016.59 1017.43 1018.16 1018.77 1019.28 1019.71 1020.09 1020.48 1020.89 1021.35 1021.84 1022.35 1022.86 1023.35 1023.78 1024.17 1024.51 1024.80 1025.08 1025.33 1025.58 1025.82 1026.02 1026.18 1026.28 1026.28 1026.20 1026.04 1025.81 1025.54 1025.25 1024.96 1024.67 1024.37 1024.05
1009.25 1009.84 1010.48 1011.20 1012.03 1012.94 1013.91 1014.89 1015.83 1016.70 1017.46 1018.10 1018.65 1019.13 1019.59 1020.05 1020.54 1021.07 1021.61 1022.17 1022.70 1023.19 1023.63 1024.01 1024.34 1024.65 1024.95 1025.26 1025.57 1025.87 1026.14 1026.36 1026.49 1026.52 1026.45 1026.29 1026.05 1025.77 1025.47 1025.16 1024.87 1024.56 1024.22
1008.01 1008.67 1009.38 1010.17 1011.05 1012.01 1013.01 1014.02 1014.97 1015.85 1016.62 1017.29 1017.88 1018.43 1018.96 1019.51 1020.08 1020.69 1021.31 1021.92 1022.49 1023.00 1023.45 1023.84 1024.18 1024.51 1024.85 1025.20 1025.56 1025.93 1026.27 1026.54 1026.73 1026.80 1026.75 1026.59 1026.35 1026.06 1025.75 1025.43 1025.11 1024.77 1024.40
1006.65 1007.37 1008.15 1009.01 1009.96 1010.97 1012.02 1013.04 1014.02 1014.91 1015.69 1016.39 1017.02 1017.62 1018.23 1018.86 1019.53 1020.24 1020.94 1021.62 1022.24 1022.79 1023.26 1023.67 1024.04 1024.39 1024.76 1025.15 1025.57 1025.99 1026.38 1026.71 1026.94 1027.05 1027.03 1026.90 1026.67 1026.39 1026.07 1025.73 1025.37 1024.99 1024.56
Thickness
5747 5749 5749 5748 5747 5746 5746 5745 5744 5744 5743 5743 5742 5741 5740 5740 5739 5738 5737 5737 5736 5736 5736 5735 5734 5734 5733 5732 5732 5731 5730 5730 5729 5729 5728 5727 5727 5726 5726 5725 5724 5724 5723
5748 5747 5746 5745 5744 5743 5742 5741 5740 5739 5739 5739 5738 5737 5737 5736 5735 5734 5733 5733 5732 5732 5731 5731 5730 5729 5728 5728 5727 5727 5726 5725 5725 5724 5723 5723 5722 5722 5722 5721 5720 5719 5719
5745 5743 5742 5741 5740 5739 5738 5737 5736 5735 5734 5734 5733 5733 5732 5732 5731 5730 5729 5728 5728 5727 5726 5726 5725 5724 5724 5723 5722 5722 5721 5720 5719 5719 5718 5718 5717 5717 5717 5716 5716 5715 5715
5740 5739 5738 5737 5736 5735 5734 5733 5732 5731 5730 5729 5728 5728 5728 5727 5726 5725 5724 5724 5723 5722 5721 5721 5720 5719 5718 5718 5717 5717 5716 5715 5714 5713 5713 5712 5712 5712 5712 5712 5711 5710 5710
5735 5734 5734 5732 5731 5730 5729 5728 5727 5726 5725 5724 5724 5723 5723 5722 5721 5720 5719 5719 5718 5717 5716 5716 5715 5714 5713 5712 5712 5711 5710 5709 5708 5708 5707 5707 5707 5707 5707 5707 5706 5705 5705
5729 5729 5728 5727 5726 5725 5724 5723 5722 5721 5720 5719 5718 5718 5717 5716 5716 5715 5714 5713 5713 5712 5711 5710 5709 5708 5708 5707 5706 5705 5705 5703 5702 5702 5701 5701 5701 5702 5702 5701 5701 5700 5699
5723 5723 5722 5722 5721 5719 5718 5717 5716 5715 5715 5714 5713 5712 5712 5711 5710 5709 5709 5708 5707 5706 5706 5705 5704 5703 5702 5701 5700 5700 5699 5698 5697 5696 5695 5695 5695 5696 5696 5696 5695 5694 5693
5717 5717 5716 5715 5715 5714 5712 5711 5711 5710 5709 5708 5707 5706 5706 5705 5704 5703 5703 5702 5702 5701 5700 5699 5698 5697 5696 5695 5694 5694 5693 5692 5691 5690 5689 5689 5689 5690 5690 5689 5689 5688 5688
5710 5710 5709 5709 5708 5707 5706 5705 5704 5703 5703 5702 5701 5700 5699 5698 5698 5697 5697 5696 5695 5695 5694 5693 5692 5691 5690 5689 5688 5687 5686 5685 5685 5684 5683 5683 5683 5683 5683 5683 5682 5682 5681
5703 5703 5702 5702 5702 5701 5700 5699 5698 5697 5696 5695 5694 5693 5692 5692 5691 5690 5690 5689 5689 5688 5688 5687 5686 5684 5683 5683 5682 5681 5680 5679 5678 5678 5677 5677 5677 5677 5677 5676 5676 5675 5675
5694 5695 5695 5695 5695 5694 5693 5692 5691 5690 5689 5688 5687 5686 5685 5685 5684 5683 5683 5682 5682 5681 5681 5680 5679 5678 5677 5676 5675 5674 5673 5672 5672 5671 5671 5670 5671 5671 5671 5670 5669 5669 5668
5687 5687 5688 5688 5688 5687 5686 5685 5684 5683 5682 5681 5680 5679 5679 5678 5677 5676 5676 5675 5675 5674 5674 5673 5672 5671 5670 5669 5668 5668 5667 5666 5665 5664 5664 5664 5664 5664 5663 5663 5662 5662 5661
5682 5682 5681 5682 5681 5680 5679 5678 5677 5676 5675 5674 5673 5673 5672 5671 5670 5670 5669 5668 5668 5667 5667 5666 5665 5664 5664 5663 5662 5661 5660 5659 5658 5657 5656 5656 5656 5656 5656 5655 5655 5654 5654
5676 5676 5675 5675 5675 5674 5673 5671 5670 5669 5668 5667 5666 5666 5666 5665 5663 5662 5662 5661 5661 5660 5659 5659 5658 5658 5657 5656 5655 5654 5653 5652 5650 5649 5648 5648 5648 5647 5647 5647 5646 5646 5645
5671 5670 5669 5669 5668 5667 5666 5664 5663 5662 5661 5660 5660 5659 5659 5658 5656 5655 5655 5654 5653 5653 5652 5651 5651 5650 5650 5649 5648 5647 5646 5644 5643 5642 5640 5640 5639 5638 5638 5638 5637 5637 5636
5666 5664 5663 5663 5662 5661 5660 5658 5656 5655 5655 5654 5653 5652 5652 5651 5650 5649 5648 5647 5646 5646 5645 5644 5644 5643 5642 5641 5641 5639 5638 5637 5636 5634 5633 5632 5630 5629 5629 5628 5628 5627 5627
5661 5659 5658 5657 5656 5655 5653 5652 5650 5649 5648 5647 5646 5645 5645 5644 5643 5642 5641 5640 5639 5639 5638 5637 5636 5635 5635 5634 5633 5631 5630 5629 5628 5627 5625 5623 5621 5620 5619 5618 5617 5617 5616
5655 5654 5653 5652 5649 5648 5647 5645 5643 5642 5641 5640 5639 5639 5638 5637 5636 5635 5634 5632 5632 5631 5630 5629 5628 5627 5626 5625 5624 5624 5623 5622 5620 5618 5616 5614 5612 5610 5609 5607 5606 5605 5604
5650 5649 5647 5646 5644 5642 5640 5638 5636 5635 5634 5633 5632 5631 5630 5630 5629 5628 5626 5625 5624 5623 5622 5621 5619 5618 5617 5616 5616 5616 5615 5613 5612 5610 5608 5605 5602 5600 5598 5596 5594 5593 5592
5643 5643 5642 5640 5638 5636 5633 5630 5628 5627 5626 5625 5624 5624 5623 5622 5621 5620 5619 5617 5616 5615 5613 5612 5610 5608 5607 5606 5608 5607 5606 5606 5604 5601 5598 5596 5593 5590 5587 5585 5583 5581 5580
5636 5636 5635 5634 5631 5630 5627 5624 5621 5619 5618 5617 5617 5616 5616 5615 5614 5613 5611 5609 5608 5606 5604 5603 5601 5599 5597 5597 5596 5597 5598 5597 5595 5592 5589 5586 5583 5580 5577 5574 5572 5570 5569
5631 5631 5629 5628 5626 5625 5623 5620 5617 5613 5611 5610 5609 5608 5608 5607 5606 5605 5603 5601 5599 5597 5595 5593 5592 5589 5586 5584 5582 5582 5583 5586 5585 5584 5580 5576 5572 5569 5567 5564 5562 5560 5558
5625 5626 5626 5623 5621 5619 5617 5613 5609 5606 5603 5602 5601 5600 5599 5599 5598 5596 5595 5592 5590 5589 5586 5584 5582 5579 5575 5573 5569 5566 5564 5566 5568 5572 5569 5566 5562 5559 5557 5554 5552 5550 5548
5621 5621 5620 5618 5615 5613 5611 5608 5605 5601 5597 5595 5594 5592 5591 5591 5590 5588 5586 5584 5582 5580 5577 5575 5572 5569 5566 5562 5559 5555 5551 5548 5546 5553 5557 5554 5551 5549 5546 5544 5541 5539 5536
5615 5614 5612 5610 5608 5606 5604 5602 5599 5595 5591 5588 5586 5585 5583 5582 5581 5580 5578 5576 5573 5571 5568 5566 5563 5560 5556 5552 5548 5544 5540 5535 5532 5531 5539 5544 5543 5540 5537 5534 5531 5528 5525
5606 5605 5604 5603 5600 5598 5596 5594 5592 5588 5584 5581 5579 5576 5575 5573 5572 5571 5569 5567 5564 5562 5559 5557 5554 5550 5547 5543 5538 5534 5530 5526 5523 5519 5521 5526 5529 5531 5528 5525 5520 5517 5514